Weather in Krasnouralsk

Russia / Orenburg Oblast     51°25′09″N   58°48′25″E
В апреле 2022 года жителям России запретили посещать сайт meteo.paraplan.net по решению Генеральной прокуратуры. Аудитория сайта уменьшилась в 10 раз. Владельцы сайта не видят смысла в поддержке погодного сервера в таких условиях. Сайт будет закрыт в октябре.
temp.,
°C
wind,
m/s
gust,
m/s
humid.,
%
clouds,
%
prec.,
mm/h
press.,
hPa
HPBL,
m
4 october, tue
tue423:00+7ese33405 0.0 103138
02:00+5se23425 0.0 103226
05:00+3se22440 0.0 103311
08:00+3se22440 0.0 103421
11:00+8se45310 0.0 1034511
14:00+12se45221 0.0 1034978
17:00+13ese3524100 0.0 1033446
20:00+8ese4533100 0.0 103461
5 october, wed
wed523:00+7se3536100 0.0 103579
02:00+6se3339100 0.0 103541
05:00+4se334195 0.0 103626
08:00+4sse3443100 0.0 103672
11:00+9sse462892 0.0 1035421
14:00+14sse5620100 0.0 1033842
17:00+14sse3524100 0.0 1032140
20:00+11sse3327100 0.0 103245
6 october, thu
thu623:00+11sse3928100 0.0 1031190
02:00+9sse3629100 0.0 103099
05:00+8sse4730100 0.0 1029124
08:00+8sse4931100 0.0 1028165
11:00+12s61223100 0.0 1026523
14:00+17ssw71118100 0.0 10241044
17:00+17ssw51020100 0.0 1022300
20:00+13s4525100 0.0 102266
7 october, fri
fri723:00+11wsw61358100 0.6 1023503
02:00+10ssw2478100 0.6 1022180
05:00+10sse5867100 0.7 1020277
08:00+10s6106578 0.0 1019444
11:00+12sw475098 0.0 1018706
14:00+13w6753100 0.1 10171826
17:00+11w585392 0.1 1017781
20:00+9wnw486723 0.1 1019254
8 october, sat
sat823:00+7wnw59665 0.1 1020286
02:00+6w48676 0.0 1021157
05:00+7wsw51162100 0.0 1020456
08:00+8w71363100 0.0 1020486
11:00+10w7126899 0.0 1021991
14:00+14nw9124139 0.0 10212050
17:00+14nw711463 0.0 10221691
20:00+9nw49630 0.0 1026262